Theta_e
350 350 350 349 349 349 351 351 350 348 347 349 352 351 351 350 350 351 352 353 353 351 349 348 347 345 342 340 340 340 340 339 339 338 338 338 338 338 338 339 340 341 341 341 341 341 341 340 340 340 342 343 343 344 345 346 346 346 346 347 346 347 348 349 353 356 354 353 354 353 353 353 353 352 352 352 352 354 356 356 356 356 355 355 354
350 351 349 349 350 351 352 351 348 348 350 352 353 351 350 351 351 352 354 355 355 354 352 348 344 341 339 339 339 339 340 340 339 340 339 339 339 339 339 340 340 339 339 339 338 338 340 340 341 340 341 341 342 344 345 345 346 346 345 345 345 346 347 349 352 355 355 353 353 354 354 353 353 353 352 353 353 353 355 356 356 356 356 356 355
350 350 350 350 351 352 352 351 350 352 353 351 350 349 348 347 348 350 351 352 351 350 347 343 340 340 340 340 340 341 341 341 342 341 341 340 339 339 339 338 338 338 338 338 338 338 339 340 341 342 342 342 342 343 345 346 346 346 345 345 346 347 347 348 350 352 353 353 353 354 353 352 353 352 352 352 353 354 355 355 355 356 356 355 355
350 350 350 351 352 353 354 354 354 354 351 349 350 348 345 344 346 347 347 347 345 343 342 341 342 343 343 343 343 344 344 344 344 343 342 342 341 341 341 340 340 340 339 339 340 340 341 342 343 344 344 344 344 344 346 346 347 347 346 346 347 348 347 348 349 351 353 353 353 352 352 352 352 351 352 352 352 354 355 355 355 355 355 355 356
350 352 352 352 354 354 354 355 355 353 350 350 353 351 346 345 346 345 345 344 344 343 343 343 343 344 345 346 347 346 346 346 346 346 345 345 345 345 344 343 342 342 341 342 342 342 343 343 344 345 345 345 345 345 346 347 347 347 347 347 347 347 347 347 348 349 351 352 352 352 351 352 352 352 352 351 351 352 353 353 354 355 355 355 356
355 355 355 355 355 355 354 355 355 354 353 353 352 350 349 348 347 346 344 344 345 345 346 346 346 347 347 348 348 347 347 348 348 348 348 348 348 347 346 345 344 343 344 344 344 344 344 345 345 345 346 346 346 347 347 348 348 348 348 348 347 347 348 348 348 348 350 352 352 352 352 353 353 353 351 350 351 351 352 352 352 352 353 355 355
361 359 358 358 357 356 355 355 357 356 356 353 351 350 350 349 347 344 342 344 344 345 348 349 349 350 350 350 351 351 351 351 351 351 351 350 350 348 346 346 345 346 346 346 346 346 345 345 345 345 346 347 348 348 348 348 348 348 348 348 348 348 348 348 348 349 350 351 351 352 353 353 353 353 351 350 350 351 352 352 351 349 350 352 352
360 356 355 354 354 353 354 356 357 356 355 354 352 351 351 350 348 346 347 349 350 349 350 351 351 351 351 351 352 352 352 353 352 352 351 351 350 347 346 346 346 346 347 346 346 346 346 346 346 347 347 348 348 348 348 348 348 347 346 346 346 347 348 348 348 348 349 350 350 351 351 352 351 350 350 350 351 351 350 351 351 350 348 349 349
354 350 349 350 349 349 351 354 355 355 355 354 352 352 353 353 351 351 352 353 353 353 352 352 352 352 352 352 352 351 352 352 352 351 350 349 348 347 347 347 347 347 347 347 347 347 347 347 347 347 348 348 348 348 348 348 347 347 346 345 344 345 347 348 348 348 348 349 349 349 349 349 349 349 349 350 350 350 349 350 351 351 350 350 349
354 351 348 347 349 351 354 356 357 358 357 356 354 353 353 352 351 351 352 352 352 352 351 350 350 350 349 349 349 348 349 348 348 348 348 348 348 348 348 348 348 348 347 347 347 347 347 347 347 346 347 347 347 347 347 347 348 348 346 345 345 346 347 347 348 348 348 348 348 349 348 348 349 349 349 349 349 349 349 350 350 350 350 351 351
354 352 349 348 351 354 355 356 356 355 355 353 352 352 351 351 351 351 350 349 348 347 347 346 346 346 345 345 345 345 345 344 344 345 345 346 346 347 347 347 347 346 346 346 346 346 346 346 346 346 345 346 346 346 345 346 346 347 347 347 347 347 347 347 347 347 347 347 347 348 348 348 348 349 349 349 349 349 349 349 349 350 350 350 350
353 352 352 351 352 353 353 352 352 351 351 351 350 350 350 349 348 347 346 345 344 343 343 343 343 343 343 343 342 342 342 342 342 342 342 343 343 344 345 346 346 345 345 345 345 345 344 344 345 345 345 345 345 345 345 344 345 346 346 346 346 346 346 346 346 346 346 346 346 346 347 347 347 348 348 348 348 348 348 348 349 349 349 349 350
349 350 351 351 351 352 351 351 350 349 349 348 346 346 345 344 343 343 342 342 341 341 341 341 341 340 340 340 341 341 341 341 341 340 341 341 342 343 343 344 344 344 344 344 343 343 343 343 344 344 344 344 344 344 344 344 345 345 344 345 345 345 345 345 345 346 345 345 345 344 345 346 346 346 346 347 347 348 348 348 349 349 349 350 350
350 350 350 350 350 349 348 348 346 345 344 342 342 341 340 340 340 340 340 339 339 339 339 339 339 339 339 340 340 340 340 339 339 338 339 340 340 341 342 342 343 342 342 342 342 342 342 342 343 343 343 343 343 343 344 344 344 344 344 344 344 344 344 344 344 344 344 345 345 344 345 345 345 345 345 346 346 347 348 348 348 348 349 349 349
349 349 349 348 347 345 344 343 341 340 339 338 338 338 337 338 337 337 337 337 337 337 337 338 339 339 339 338 338 338 337 336 336 337 337 339 339 340 340 340 341 342 342 341 341 341 342 342 342 342 342 342 342 342 343 343 343 344 344 344 344 344 344 344 344 343 343 344 344 345 345 345 345 346 346 346 346 346 347 347 347 347 348 348 348
346 347 346 344 343 341 340 339 337 337 336 336 336 336 336 336 335 335 336 336 337 337 337 338 338 337 337 337 337 337 337 336 336 336 337 337 337 338 338 338 339 340 341 341 340 340 341 341 341 341 341 342 342 342 342 343 343 343 344 344 344 344 344 343 343 343 343 343 344 345 345 346 346 346 346 346 345 346 346 345 346 346 347 347 347
344 343 341 340 339 337 336 336 335 335 334 335 335 335 335 334 334 335 336 336 336 336 335 335 335 335 335 336 336 337 337 336 336 336 336 337 337 337 338 338 339 339 340 340 340 339 340 340 340 340 341 341 341 341 341 342 343 343 343 343 343 343 343 343 343 343 343 344 345 345 346 346 346 345 345 344 345 345 346 344 344 345 346 347 348
339 339 338 337 336 335 334 334 334 334 335 335 334 334 334 334 334 334 334 334 334 333 333 333 334 334 335 335 335 336 336 336 336 336 336 336 337 337 338 338 339 339 339 339 339 339 339 339 340 340 341 341 341 341 342 342 342 342 342 342 342 342 343 343 343 343 343 343 344 345 345 345 345 344 344 344 344 345 345 344 344 345 345 346 347
336 335 335 334 334 334 334 334 334 334 333 332 332 332 332 332 332 332 332 332 332 332 332 333 333 333 334 334 335 335 335 336 336 336 336 336 336 337 338 338 338 338 338 337 338 338 338 338 339 339 340 341 341 341 341 341 341 341 341 341 341 341 342 342 342 343 343 343 344 344 344 344 344 343 343 343 343 344 344 344 344 344 344 345 346
333 333 334 335 335 334 333 332 332 331 330 330 330 330 331 331 331 331 331 332 332 332 333 333 333 334 334 335 335 335 335 335 335 335 336 336 336 336 336 337 336 336 336 336 336 337 337 338 338 339 339 340 340 340 340 340 340 341 340 340 340 340 341 341 341 342 342 342 342 342 342 342 342 343 343 343 343 343 343 343 343 343 344 344 345
333 333 333 333 332 331 330 330 329 329 329 329 330 330 330 331 331 332 332 332 332 333 333 333 334 334 334 334 334 335 335 335 335 334 334 334 334 334 334 335 335 335 335 335 335 335 335 336 336 337 337 338 338 338 338 339 339 340 340 339 339 339 339 339 339 340 340 340 340 340 341 341 341 342 342 343 343 342 342 341 342 343 344 344 344
331 331 330 329 329 329 329 329 329 329 329 329 330 330 331 331 331 332 332 333 333 333 333 333 334 334 334 334 334 334 333 332 331 331 331 331 331 332 333 332 331 331 331 332 333 333 334 335 335 336 336 337 337 337 337 337 338 338 339 338 338 338 338 338 338 338 338 339 339 339 340 340 340 341 341 342 342 341 341 340 340 342 344 344 344
329 328 328 328 329 329 329 329 329 328 329 330 330 331 331 331 331 332 332 332 332 332 333 333 333 333 332 332 331 330 329 327 326 326 326 326 326 328 329 328 327 325 324 325 327 328 330 331 332 333 333 333 333 334 334 335 336 337 337 337 337 336 335 334 334 334 335 336 337 338 339 339 339 340 340 340 341 340 340 340 339 340 342 343 343
328 328 328 328 329 328 328 328 328 329 329 330 330 330 329 330 330 331 331 332 332 332 332 331 329 328 328 327 326 325 323 322 322 322 322 321 322 323 323 323 322 322 321 321 323 324 325 326 327 327 328 328 329 330 330 331 332 332 332 331 331 330 329 328 329 330 331 333 334 335 337 337 338 338 339 339 339 339 339 339 338 340 341 342 344
327 327 328 327 327 327 327 327 328 329 329 328 329 329 329 330 330 331 331 331 330 330 329 327 325 324 324 322 321 320 320 319 319 319 319 320 320 319 319 320 321 321 321 321 321 322 322 323 323 324 324 324 325 326 326 326 326 326 326 326 326 327 327 327 327 327 328 330 331 332 333 335 336 337 337 338 338 338 338 338 338 340 341 342 343
326 327 327 327 326 326 327 328 328 328 327 328 329 329 329 329 329 327 327 327 326 326 324 323 322 321 320 319 319 319 318 318 318 318 318 318 319 319 320 321 321 321 321 321 321 321 321 321 321 322 322 323 323 324 324 324 325 325 326 326 326 327 327 326 326 326 327 328 329 330 331 332 333 335 335 336 337 337 338 338 340 341 342 343 340
326 326 326 326 326 326 327 328 328 327 327 328 328 327 327 326 324 322 322 323 323 322 321 320 319 319 318 318 318 318 318 318 317 317 317 317 319 320 320 321 321 322 321 322 321 321 320 320 321 321 321 322 323 323 324 324 325 325 325 325 325 326 326 326 326 326 327 327 328 329 330 330 332 333 334 335 337 337 338 339 341 341 341 340 335
326 326 326 325 326 326 327 327 327 327 327 327 326 324 323 321 320 320 320 320 320 319 318 318 318 317 318 317 317 318 317 316 316 316 316 317 319 319 319 320 321 322 322 321 320 319 319 319 320 320 321 321 322 323 323 324 324 324 324 325 325 325 326 326 326 327 327 328 328 329 330 331 331 333 334 335 337 338 339 339 340 339 337 335 329
325 325 325 325 326 326 327 327 326 327 327 325 322 321 321 320 319 319 319 318 318 318 318 318 317 317 317 317 316 316 315 314 315 317 318 319 319 319 318 320 321 322 322 320 317 315 316 316 317 318 319 320 321 322 323 323 324 324 325 326 326 327 327 328 329 329 329 330 329 330 331 331 333 334 335 335 334 334 336 336 335 333 331 328 325
325 325 325 325 326 326 327 326 326 327 327 324 320 319 320 319 319 319 319 318 318 317 318 318 317 317 317 316 316 315 314 315 317 319 320 320 320 320 321 321 322 323 322 320 317 315 314 314 316 317 319 320 322 323 324 326 326 327 328 328 329 329 329 329 330 331 331 331 331 331 332 332 332 332 331 329 328 328 329 329 328 327 325 324 322
324 324 324 325 325 326 326 325 326 327 327 322 319 319 319 319 319 319 318 318 317 317 317 317 317 316 316 315 315 316 316 317 319 320 320 320 320 320 322 322 323 323 322 322 321 320 319 320 321 322 323 324 325 326 326 327 327 327 327 327 327 328 328 328 328 329 329 329 329 328 328 328 327 326 325 324 324 324 324 324 323 323 322 322 322
324 324 324 325 325 326 326 326 327 328 326 322 320 320 320 320 320 318 317 317 317 317 317 316 316 315 315 315 315 315 316 317 318 318 319 319 319 319 320 321 322 322 322 322 323 323 323 323 324 325 325 325 325 325 324 324 324 324 324 324 324 325 325 326 326 326 326 326 325 325 324 324 323 323 323 322 322 322 322 322 321 321 321 320 320
324 324 325 326 326 326 327 327 327 327 326 324 322 322 322 322 320 318 317 317 317 316 316 316 316 315 315 314 314 314 315 316 316 317 317 318 318 318 318 319 320 320 320 321 321 322 322 322 322 322 322 322 323 323 323 323 322 322 322 322 322 322 322 323 323 323 323 323 323 322 322 321 321 320 320 320 320 320 320 320 320 320 320 319 319
324 325 326 327 327 327 327 327 326 325 325 324 323 323 321 320 319 318 317 318 317 317 318 318 317 317 316 315 314 314 314 314 315 315 316 316 317 317 317 318 318 318 319 319 319 320 320 320 320 320 320 320 320 320 320 321 321 321 320 320 320 320 320 320 320 320 320 319 319 319 319 319 318 319 318 318 318 318 318 318 318 318 318 318 318
325 326 327 327 327 326 325 325 324 324 323 323 322 321 320 319 318 318 319 319 319 319 320 320 319 319 319 317 316 315 314 314 314 314 315 315 315 316 316 316 317 317 317 317 318 318 318 319 319 319 319 319 319 319 319 319 319 319 319 319 318 318 318 318 318 318 318 318 317 317 317 318 318 318 318 317 317 317 317 317 317 317 317 317 317
325 326 328 328 326 324 323 323 323 323 323 322 320 319 319 319 319 320 320 320 320 320 320 319 319 319 319 319 318 316 315 315 314 314 314 314 314 314 315 315 315 316 316 316 316 317 317 317 317 318 318 318 318 318 318 318 318 317 317 317 318 318 317 317 317 317 317 317 317 317 317 317 317 317 316 316 316 316 316 316 316 316 317 317 317
325 326 327 326 325 324 323 323 322 322 321 320 320 320 320 321 321 321 320 320 320 320 319 319 317 317 317 317 316 316 315 315 314 313 314 314 314 314 314 314 314 314 314 314 314 314 315 315 316 316 317 317 318 318 318 318 318 317 317 317 318 318 318 317 317 316 316 316 317 317 317 317 317 316 316 316 315 315 315 315 316 316 316 316 317
325 326 325 323 323 323 322 322 322 321 320 319 320 320 321 320 321 320 320 320 320 319 319 319 317 316 316 315 315 315 315 314 313 313 313 313 313 313 313 313 313 313 313 313 313 313 313 313 313 314 315 316 316 317 317 318 318 318 318 318 318 319 319 318 317 317 317 318 318 318 318 318 317 316 316 316 315 315 314 314 315 315 315 315 315
324 325 324 323 322 322 322 321 321 320 320 320 321 321 321 321 320 320 320 320 320 320 319 318 317 316 315 314 314 314 314 314 314 313 313 312 312 312 312 312 311 311 311 311 311 311 311 311 311 312 313 313 314 315 316 317 318 318 318 318 318 319 319 319 319 319 319 319 319 318 317 316 316 316 315 315 315 314 313 313 314 314 313 313 313
323 324 323 323 322 322 321 321 321 320 321 321 321 321 321 321 320 320 320 320 320 319 318 316 315 315 314 313 313 313 313 313 314 313 313 313 312 312 311 311 310 310 310 309 309 310 310 310 310 311 311 312 313 314 315 315 316 317 317 318 318 318 318 318 319 319 319 319 319 318 316 315 314 314 315 315 314 314 314 315 314 314 313 313 313
322 322 322 322 321 321 321 321 321 321 321 321 321 320 320 320 320 320 320 320 319 319 317 316 314 314 313 313 313 312 312 313 313 313 313 313 312 312 311 310 309 309 308 308 309 309 309 310 310 311 311 312 313 314 314 315 315 316 316 317 317 317 317 317 318 318 318 318 318 318 317 316 315 315 316 315 313 314 315 316 317 316 315 315 315
321 321 321 321 321 321 321 321 321 321 320 319 319 319 319 319 319 319 318 318 318 317 317 316 314 313 313 313 312 312 312 312 312 312 312 312 311 311 310 309 308 307 307 307 308 308 309 310 310 311 311 312 313 314 314 314 315 315 315 315 315 316 316 316 316 316 316 317 317 317 317 317 316 316 316 315 313 314 315 316 317 317 317 317 316
321 321 321 321 321 321 320 320 319 318 318 318 318 318 318 318 318 317 317 317 317 316 316 315 314 313 313 313 313 313 312 312 311 311 310 310 310 309 308 306 305 305 305 306 307 308 309 310 310 310 311 312 312 313 314 314 314 315 315 314 315 315 315 315 316 316 316 316 316 316 316 316 316 316 316 316 316 316 316 316 316 316 316 316 316
321 321 321 321 320 319 319 318 318 318 318 318 318 318 318 318 317 316 316 316 316 315 315 314 313 313 313 312 312 312 312 312 312 311 309 308 307 306 303 302 301 301 302 303 305 307 308 309 309 310 311 311 312 313 313 314 314 314 314 314 314 314 314 315 314 315 315 315 315 315 315 315 316 316 316 316 316 316 315 315 314 314 314 314 314
321 321 320 320 319 319 319 319 318 318 318 318 318 318 318 318 317 317 316 315 314 314 314 313 313 313 313 312 312 312 312 311 311 310 309 308 307 306 304 302 301 300 300 300 302 304 306 307 308 309 310 311 312 312 313 313 313 314 314 314 314 314 314 314 314 314 314 314 314 315 315 315 315 315 315 314 313 313 312 312 311 311 310 310 309
319 319 319 319 318 318 318 318 318 318 318 318 319 319 319 319 319 318 317 315 314 313 313 313 313 313 313 313 313 312 312 312 311 311 310 310 309 309 308 307 305 303 301 300 300 301 302 304 306 308 310 310 311 312 312 313 313 313 313 314 314 314 314 314 314 314 313 313 313 313 313 313 313 313 313 313 312 311 311 311 310 310 309 309 308
319 319 318 318 317 317 317 317 318 318 319 319 319 319 320 320 319 318 317 316 314 313 313 313 314 314 314 314 314 314 313 313 313 312 312 311 311 310 310 309 308 306 304 302 301 300 300 301 303 305 307 309 311 311 312 313 313 313 313 313 313 313 313 313 314 313 313 313 313 312 312 312 312 312 312 312 312 311 311 311 311 311 311 310 310
317 317 317 317 317 317 318 318 319 319 319 319 319 320 320 319 318 317 317 316 314 314 313 314 314 314 315 315 315 315 315 314 314 314 313 312 310 309 308 308 308 306 305 304 303 302 302 301 301 302 304 306 308 310 311 312 312 313 313 313 313 312 312 312 312 313 312 312 312 311 311 312 312 312 312 311 311 311 312 312 312 312 312 311 311
317 317 317 317 317 318 318 318 318 318 318 318 318 318 318 318 318 317 316 316 315 314 314 314 314 315 315 315 316 316 315 315 315 315 315 314 312 309 307 305 305 305 305 305 305 304 303 303 302 302 302 303 306 308 310 311 311 312 312 313 313 312 312 311 311 311 311 311 311 311 311 311 311 311 311 311 311 311 312 312 311 311 311 310 309
317 317 317 317 317 317 318 317 317 317 317 317 317 318 318 318 318 318 317 317 316 315 315 315 315 316 316 316 317 317 316 316 316 316 316 316 315 314 311 308 306 306 305 305 305 305 305 304 304 303 302 302 304 306 308 310 310 310 311 312 312 312 311 311 311 311 311 311 311 311 311 311 311 311 310 310 310 310 311 310 310 310 310 309 309
317 316 317 317 317 317 317 317 316 316 316 316 317 317 317 317 318 317 317 317 317 316 316 316 316 316 317 317 317 317 317 317 316 316 316 316 316 316 315 312 310 309 308 307 305 305 304 305 305 304 303 303 303 303 305 308 309 310 311 312 312 311 310 310 309 309 309 310 310 310 310 310 310 310 309 309 309 310 309 309 309 309 309 309 309
Wind_Speed
31 32 32 31 30 29 28 27 24 23 24 26 28 28 28 28 28 30 32 32 30 28 27 28 28 27 24 22 22 22 22 21 20 19 19 20 21 22 22 20 18 18 19 19 20 21 23 23 25 25 23 22 23 24 24 24 24 23 22 22 23 23 20 15 9 7 12 16 16 16 16 16 17 18 17 18 18 18 18 18 18 18 19 19 20
32 33 33 33 33 31 29 27 25 24 24 25 26 26 26 25 25 28 30 32 32 31 29 27 23 19 16 15 15 16 17 18 18 19 20 21 22 22 21 19 19 20 21 21 23 24 25 25 25 26 26 25 24 24 25 24 24 24 24 24 25 26 24 20 14 8 8 14 17 16 16 16 17 18 18 19 18 18 19 19 19 20 20 21 21
35 35 34 34 33 32 30 27 24 21 17 14 12 12 16 19 20 21 24 29 30 27 23 21 18 16 15 15 15 16 17 18 19 19 20 20 20 20 21 21 23 24 23 23 24 26 27 27 27 26 26 26 26 25 24 24 24 25 25 25 25 25 25 22 18 12 9 12 15 17 16 17 18 19 18 19 19 18 19 20 21 21 22 23 25
35 35 35 35 33 28 23 19 17 14 8 5 7 10 17 21 19 18 20 23 22 20 19 19 18 17 17 17 18 18 19 20 21 21 21 22 23 24 25 26 26 25 24 24 24 26 27 28 28 27 26 26 27 26 25 24 24 24 24 24 24 23 23 22 21 17 14 12 14 17 19 18 19 19 18 19 19 19 20 21 22 24 25 25 27
34 34 32 28 22 17 14 10 8 7 7 7 12 16 18 20 21 21 22 23 23 24 26 25 22 21 20 20 20 21 22 24 25 26 27 28 28 28 28 28 27 25 24 24 25 26 28 29 29 28 26 26 26 27 26 26 25 25 25 25 24 24 24 23 23 21 18 15 15 18 20 20 20 20 19 19 20 20 21 22 23 24 25 26 26
22 23 21 18 15 13 15 15 12 11 11 11 11 13 16 20 22 22 23 24 25 26 26 26 25 23 23 23 24 25 27 28 29 29 29 29 29 29 29 27 26 24 24 25 26 27 28 29 29 28 27 26 26 27 27 26 26 26 26 27 27 27 26 24 23 21 19 18 18 19 20 21 21 21 20 20 20 20 21 22 24 24 25 26 26
9 10 12 15 16 16 16 18 19 16 14 12 11 12 16 20 20 20 22 24 26 25 24 23 23 23 24 25 26 27 28 28 28 29 29 30 30 29 26 25 24 25 25 26 26 27 29 30 30 28 27 26 26 27 26 26 25 25 26 27 27 26 25 24 24 22 20 19 18 18 20 21 21 21 21 21 19 19 19 20 22 24 24 24 26
6 6 2 4 5 6 10 14 16 14 12 12 13 15 17 19 19 19 20 22 23 23 23 23 23 23 24 25 25 25 26 26 28 29 30 29 28 26 25 25 26 26 27 27 28 28 29 29 30 29 28 27 26 26 26 26 25 25 25 25 25 25 25 24 23 22 21 19 18 18 19 19 20 20 20 19 16 17 19 19 20 24 25 24 25
17 18 11 8 8 8 10 12 12 12 12 13 15 17 16 16 16 17 18 19 20 20 20 21 21 21 21 22 22 23 24 25 26 27 28 27 26 26 27 27 27 27 27 28 28 29 28 28 29 29 28 27 26 26 26 26 25 25 26 26 25 25 25 24 22 20 19 17 16 17 16 16 18 18 17 18 18 19 21 19 19 23 24 25 27
8 7 4 9 10 10 11 12 12 11 11 12 13 14 14 14 15 16 16 16 16 16 16 16 17 17 18 19 20 21 22 23 24 24 26 26 27 27 27 27 27 27 27 28 28 28 28 28 28 28 29 28 26 26 26 26 26 26 27 26 25 25 24 23 21 20 18 15 15 15 12 12 17 19 19 21 23 22 21 19 20 22 21 20 23
1 5 10 11 10 10 10 9 9 9 9 11 12 12 13 14 14 14 14 14 15 15 16 16 16 17 18 18 19 20 21 22 22 23 24 25 26 27 27 28 28 27 27 27 27 27 27 28 28 28 29 28 27 27 26 26 27 27 27 27 27 27 26 23 21 20 18 16 16 16 13 13 18 21 21 22 23 23 23 22 21 20 17 12 12
2 3 5 7 8 8 8 8 9 10 10 11 11 12 12 13 13 14 15 16 16 17 17 17 17 18 18 19 20 21 21 22 22 23 24 24 25 27 28 28 28 28 27 27 27 27 27 27 28 28 28 28 28 27 26 26 26 27 27 27 28 29 29 27 25 23 21 19 18 18 17 17 20 21 22 22 23 23 24 23 23 21 19 15 12
3 1 3 5 6 6 7 8 9 9 10 11 11 12 13 14 14 15 16 16 16 17 18 18 19 19 20 20 21 21 21 22 22 23 24 25 25 26 27 28 28 28 28 28 27 27 27 27 27 27 28 28 27 26 26 26 27 27 27 28 28 28 29 28 28 27 27 25 22 21 22 22 22 23 24 23 23 22 22 23 24 23 21 20 20
3 1 2 4 5 7 8 9 10 10 11 12 13 14 15 15 15 15 16 17 17 18 19 20 20 20 19 20 20 21 22 23 24 24 24 24 25 26 27 28 28 28 28 28 28 27 27 26 26 26 27 27 27 27 27 27 27 27 28 28 28 28 28 29 29 29 30 30 28 28 28 27 26 27 28 26 23 22 22 23 24 24 24 25 27
4 5 6 8 8 9 10 11 12 12 13 14 15 15 16 16 17 17 18 19 19 19 20 20 20 19 19 20 22 23 24 24 25 25 24 24 24 25 26 27 28 28 28 28 28 28 28 26 26 26 27 28 28 27 27 27 27 27 27 27 27 28 29 29 29 30 31 32 33 33 33 32 31 30 29 28 26 26 26 27 27 26 26 26 27
7 7 8 8 9 10 10 11 12 13 14 15 16 17 17 18 18 19 19 19 19 19 19 19 20 20 21 22 23 25 25 25 25 25 25 25 25 25 27 27 27 28 28 27 27 28 28 27 27 27 27 27 28 28 27 27 26 25 26 26 26 27 28 29 30 30 31 32 33 34 34 33 32 30 29 28 28 29 29 28 27 26 23 20 20
6 6 6 6 7 9 10 12 13 14 15 16 16 16 17 17 17 17 17 17 18 19 20 21 21 23 23 23 24 25 25 25 25 25 25 25 25 26 27 28 27 27 27 27 26 26 27 27 27 27 27 27 28 28 27 27 27 26 25 25 26 26 27 28 29 30 31 31 32 33 32 31 30 29 28 27 27 29 28 24 23 23 19 12 11
5 5 6 7 9 12 13 13 13 13 13 13 13 14 14 15 15 15 16 18 19 21 22 23 23 23 24 24 24 25 26 25 24 24 24 23 23 24 25 25 25 25 25 25 25 25 25 26 26 26 27 27 27 27 26 26 26 26 25 25 24 24 26 27 27 28 28 28 29 30 29 29 28 27 27 26 27 29 28 26 25 23 18 12 11
7 7 8 10 12 12 11 9 9 9 10 11 12 13 14 15 16 17 18 20 21 22 22 23 24 24 23 24 24 24 24 24 23 23 23 22 21 21 21 21 21 22 21 21 22 23 23 24 24 25 26 27 26 26 25 24 25 26 25 23 21 22 25 26 24 24 25 24 25 26 26 26 26 25 26 26 25 26 27 29 28 25 21 18 17
8 8 9 8 8 7 6 7 8 10 11 13 14 14 15 16 17 18 19 20 21 22 23 23 24 24 23 23 22 22 22 22 21 20 19 19 19 18 17 17 17 19 19 18 19 21 22 22 23 23 23 24 24 24 22 22 24 26 25 22 21 23 25 24 23 23 24 24 24 25 25 25 26 25 25 25 24 24 26 27 28 27 25 23 21
7 6 5 5 6 7 8 9 10 12 13 14 14 15 16 17 18 18 19 20 20 21 22 22 22 23 23 23 22 21 19 17 17 17 16 16 16 16 16 17 16 17 18 19 20 22 22 22 22 22 21 22 22 22 22 22 23 24 24 23 23 23 22 22 23 23 24 25 25 25 25 25 25 26 26 26 26 26 27 27 28 30 28 26 24
7 7 7 8 8 9 9 10 11 13 14 15 15 16 17 17 18 18 18 18 19 20 21 21 20 20 20 19 18 16 15 14 15 16 15 16 16 16 15 14 13 13 15 17 19 20 20 21 21 20 20 20 21 21 21 23 23 24 25 24 23 21 20 20 21 22 22 23 23 24 24 25 26 26 27 29 29 29 28 28 29 30 31 31 30
9 9 9 10 9 10 10 11 13 14 15 15 16 17 18 18 18 17 17 17 19 19 19 17 15 15 15 14 13 13 14 16 17 17 17 17 17 17 16 16 17 18 19 20 20 20 20 21 21 21 21 21 21 22 22 23 24 25 25 24 23 23 22 22 23 23 23 23 23 24 25 26 26 27 28 29 30 29 28 28 29 31 32 33 33
10 10 10 10 10 11 12 13 14 14 15 15 16 17 17 17 17 17 17 16 16 15 13 12 11 12 12 14 15 16 17 19 19 19 19 19 19 21 22 22 22 23 23 24 24 24 25 25 25 25 24 23 23 23 24 25 27 28 29 29 29 29 28 28 27 25 24 24 24 24 25 26 27 29 30 30 29 28 28 28 30 31 32 32 32
10 10 10 10 11 13 13 14 14 15 15 16 17 18 18 18 18 15 13 11 10 10 10 11 12 12 13 15 17 18 19 21 22 22 21 20 22 24 24 23 22 21 21 23 24 24 25 26 27 27 27 27 27 27 28 30 31 31 31 31 30 29 28 28 26 24 23 24 24 25 27 29 29 30 30 30 28 28 28 29 30 29 29 28 28
10 10 11 12 13 13 14 14 14 15 16 16 17 17 16 14 11 11 11 10 10 10 10 11 13 13 13 15 16 18 19 20 22 23 22 22 24 25 24 23 21 19 20 22 23 24 24 24 24 24 24 24 24 24 26 27 27 26 26 25 25 25 26 25 24 23 23 24 24 26 28 30 29 30 29 28 27 28 28 27 26 24 25 24 20
10 10 11 12 13 13 13 14 15 16 17 17 15 12 10 10 13 15 14 12 11 11 11 13 13 13 13 14 15 16 17 19 20 22 22 23 23 22 21 21 21 20 21 22 23 22 21 20 18 18 19 19 19 20 22 23 24 24 24 24 24 25 25 25 25 25 26 26 26 27 28 28 28 27 26 25 26 27 27 25 23 22 21 19 14
10 10 11 12 13 13 13 14 15 16 16 13 11 12 14 16 17 16 15 14 12 11 12 13 14 14 14 15 15 15 16 18 19 20 21 20 20 20 20 19 19 20 21 22 22 19 17 16 16 16 16 16 17 18 20 21 22 22 23 23 23 24 24 24 25 26 27 27 26 25 25 24 23 23 23 23 24 23 22 21 21 20 17 14 10
10 11 11 13 13 12 13 14 14 15 14 10 15 16 15 16 17 17 17 16 15 14 14 14 15 17 17 16 16 16 17 18 19 19 19 18 19 20 19 16 14 14 15 15 14 13 12 11 12 12 11 11 12 14 16 17 17 17 18 18 18 20 21 22 23 25 26 26 25 24 23 22 21 21 19 15 12 12 14 14 12 12 11 10 9
11 11 12 13 13 12 14 13 13 15 11 11 19 19 17 17 18 18 17 16 16 16 16 17 18 20 21 20 18 18 19 20 20 19 18 19 22 23 20 17 15 13 11 9 7 4 4 5 6 6 6 7 8 8 7 6 6 6 6 6 6 4 3 4 6 11 14 16 17 18 17 14 11 8 6 8 10 8 6 7 9 11 12 13 13
11 12 13 13 12 12 13 12 13 15 9 16 22 19 18 18 18 17 17 15 15 16 18 20 21 22 23 24 24 24 24 23 20 19 19 22 26 28 25 23 22 20 17 14 13 11 8 6 5 5 6 7 8 10 12 13 13 13 15 17 18 18 17 16 14 11 10 9 8 7 8 9 12 14 16 18 19 18 18 18 19 19 18 17 15
11 12 13 13 13 12 12 11 12 10 12 20 20 17 15 15 16 16 16 15 16 18 19 22 24 26 28 29 29 29 29 27 24 23 23 24 27 31 32 31 29 28 28 27 24 22 21 19 18 18 19 18 18 20 21 21 20 20 20 21 22 22 22 21 22 22 22 22 22 22 22 22 22 22 21 21 22 22 22 21 21 21 20 19 17
11 12 13 13 13 11 9 8 9 12 15 17 15 13 13 12 13 13 14 16 17 19 20 21 24 27 30 32 33 34 33 32 30 28 27 26 27 30 33 36 37 36 35 33 28 26 26 25 24 24 24 22 22 23 24 24 24 24 24 23 24 25 25 26 27 27 26 25 25 25 24 24 25 25 24 24 24 23 22 20 20 19 18 17 16
10 10 10 10 9 11 12 13 14 15 16 15 14 14 14 14 13 12 11 12 13 14 17 18 19 22 26 31 34 36 37 36 35 33 32 31 29 29 33 38 40 40 38 34 29 27 27 26 26 25 25 25 25 25 25 25 25 25 26 26 26 26 27 28 28 28 27 27 27 26 25 26 26 25 25 24 23 23 22 21 19 19 18 17 16
10 9 8 8 11 14 15 16 16 16 16 15 15 15 15 14 12 10 7 6 7 10 13 16 17 18 20 24 28 31 34 36 37 37 36 35 33 34 37 37 35 34 34 32 30 29 29 27 26 26 26 26 26 26 26 27 27 27 26 27 27 27 27 28 28 27 27 28 28 27 26 26 25 25 24 23 23 22 21 20 20 20 19 17 16
9 9 9 10 13 15 16 16 16 16 16 16 16 16 14 11 9 8 7 7 8 11 15 19 22 22 21 21 22 24 27 31 35 37 38 38 37 38 36 31 27 28 30 30 30 31 30 29 28 28 28 28 28 27 27 27 28 28 28 28 27 27 27 27 27 26 26 26 26 26 26 25 25 26 26 24 23 21 21 21 22 21 20 20 19
9 10 11 13 15 16 16 15 15 16 18 18 16 13 11 8 8 8 8 9 11 14 17 21 24 25 25 24 24 23 24 26 30 34 36 38 38 37 33 29 28 28 28 29 30 31 31 30 30 29 29 28 28 28 28 27 27 27 28 28 28 28 28 28 28 27 27 26 25 24 24 23 23 24 26 25 24 23 22 22 23 23 23 24 23
10 11 13 14 15 16 16 15 15 17 19 18 15 12 11 10 10 10 10 10 12 14 18 20 22 23 24 25 25 25 25 26 28 30 33 34 34 34 32 31 30 29 29 30 31 31 31 30 31 30 29 29 29 29 28 28 27 26 26 27 27 27 28 28 28 28 28 27 26 25 24 23 22 23 25 25 24 24 23 24 24 24 24 25 24
11 12 14 15 15 16 16 15 15 17 17 15 12 11 11 11 11 10 10 10 12 15 18 21 22 23 24 24 24 25 27 27 27 27 27 29 30 30 30 30 30 29 30 31 31 31 31 30 30 31 30 30 30 29 29 29 28 27 26 25 25 26 27 26 26 26 26 26 26 25 25 24 23 23 23 23 23 23 23 23 23 23 22 20 19
12 13 14 15 15 15 15 16 17 17 16 14 12 12 11 11 10 9 9 10 13 16 19 21 23 24 24 23 24 25 25 25 24 24 24 25 26 28 29 29 29 28 29 30 30 31 31 30 31 32 31 31 30 30 29 29 28 27 26 26 25 25 25 24 23 23 23 23 23 23 22 22 22 21 21 21 20 20 20 19 19 18 17 16 15
13 14 15 16 16 16 17 17 16 15 15 15 14 13 12 11 10 9 11 13 14 17 19 21 23 24 24 23 24 25 25 24 24 24 24 24 25 26 27 28 28 28 28 28 28 29 30 31 31 32 32 32 31 31 30 29 28 28 27 27 26 25 23 22 22 21 21 20 20 19 19 19 19 18 18 18 18 17 17 16 15 14 13 12 12
15 15 16 15 15 15 16 16 16 17 18 18 16 13 11 11 11 13 15 17 18 19 20 21 22 23 22 22 23 25 25 24 24 24 24 24 24 25 25 25 25 25 25 25 26 27 29 30 31 31 32 32 32 31 30 30 29 29 28 27 26 25 23 21 19 19 19 19 18 18 17 17 17 17 16 15 15 15 14 13 12 11 11 10 9
16 16 16 16 16 17 19 20 20 20 18 15 12 10 10 11 13 15 17 18 19 19 20 20 21 21 21 21 22 24 24 24 24 24 24 24 24 24 24 23 23 23 23 24 25 26 27 28 29 30 30 31 30 30 30 29 28 28 28 27 27 26 24 22 19 17 16 16 16 16 16 15 15 15 14 14 14 13 12 12 11 11 10 8 8
17 17 17 19 19 20 20 19 18 16 13 10 9 9 10 11 13 15 16 17 17 18 19 19 20 20 20 21 22 23 23 23 23 24 24 24 24 24 24 24 23 23 23 23 23 24 25 26 27 28 28 29 29 29 29 28 27 26 26 25 25 25 24 23 22 19 17 17 16 16 16 15 15 15 14 13 13 12 12 12 12 13 12 11 10
19 19 20 20 20 18 16 14 12 11 9 8 8 8 9 10 10 11 13 15 17 18 19 19 20 20 20 21 22 22 22 22 22 22 23 24 25 25 25 25 24 24 23 23 22 22 22 23 24 25 26 27 27 28 28 27 27 26 25 25 24 24 23 22 21 20 19 18 18 18 18 17 17 16 16 15 15 14 14 13 13 13 13 13 13
21 21 21 20 19 16 13 11 9 8 7 6 6 6 6 6 6 7 9 13 16 19 20 20 20 20 20 20 20 21 21 22 22 22 22 22 23 23 24 23 23 23 22 22 21 21 21 21 22 22 23 24 24 25 26 26 25 25 24 24 23 22 21 20 19 18 18 18 17 17 18 18 18 17 15 14 13 13 13 13 13 13 13 13 13
22 23 22 20 18 14 10 7 5 4 4 4 4 5 5 5 6 8 10 13 15 17 18 19 19 18 18 18 18 18 18 19 20 20 20 20 19 19 19 20 20 21 21 21 21 20 20 20 20 20 20 20 21 22 22 23 23 23 22 22 21 20 19 18 17 17 17 16 16 16 16 17 17 17 15 14 12 11 11 12 12 12 12 13 13
22 21 19 16 13 9 6 4 4 5 6 7 8 9 9 9 10 11 13 14 15 14 14 14 14 14 14 15 15 15 16 16 17 18 18 18 18 18 18 18 18 19 20 21 21 20 20 19 19 19 18 18 19 19 20 20 20 20 20 19 19 17 16 15 15 15 15 14 13 14 14 15 15 15 15 14 12 10 9 9 10 10 11 12 14
16 14 12 9 6 5 5 6 8 10 13 15 16 16 15 14 14 13 14 15 15 14 13 13 12 12 13 13 13 13 13 14 14 14 14 15 17 18 18 19 19 20 20 20 20 20 20 19 18 18 17 17 17 17 17 17 18 18 17 17 16 15 14 14 14 14 13 12 12 13 13 14 15 15 15 15 14 12 10 10 11 11 12 14 15
10 8 6 5 5 6 7 8 10 13 15 17 18 18 17 16 16 16 15 15 15 13 12 12 12 12 13 13 13 12 11 11 11 11 11 11 13 14 16 18 20 20 21 20 20 19 19 18 18 17 17 16 15 15 15 15 16 17 16 15 14 14 14 14 14 13 13 12 12 12 12 13 15 16 16 16 16 16 16 15 15 16 16 16 15
5 4 2 3 4 5 6 8 10 12 13 14 15 15 15 15 15 15 14 14 14 13 12 12 11 11 11 11 11 10 9 8 8 7 6 7 9 10 12 14 16 18 19 20 20 19 19 18 17 17 16 15 15 14 13 13 13 14 14 13 13 13 15 16 15 13 12 11 11 11 12 13 13 14 15 15 15 16 17 17 16 16 17 17 16
Wind_Direction
209 209 211 216 220 223 226 229 234 240 245 249 252 253 256 257 258 260 257 254 255 254 254 260 265 265 263 257 250 247 247 251 256 258 258 261 265 267 268 265 262 264 267 270 273 276 276 277 280 282 281 280 280 280 274 268 265 266 270 273 275 274 265 246 230 245 255 259 263 265 272 280 282 284 286 286 285 284 281 276 272 267 262 261 263
209 210 213 216 219 222 225 227 230 235 243 251 256 259 261 262 263 265 262 258 257 255 256 261 262 257 252 250 249 250 253 257 261 266 270 272 272 270 268 266 268 269 269 272 278 281 278 275 276 280 281 280 280 280 276 270 267 268 270 272 271 270 267 255 243 237 247 258 265 268 271 274 278 281 284 284 284 283 279 275 269 265 263 265 266
210 213 215 217 219 220 222 224 226 232 242 249 257 281 296 292 282 273 267 264 262 259 262 262 258 257 260 262 263 265 267 270 274 276 275 272 272 271 270 271 273 272 271 276 281 282 281 278 275 276 277 277 278 279 277 272 270 269 269 269 269 270 271 264 254 244 242 253 263 267 270 272 273 277 281 283 282 280 276 272 269 268 269 270 271
213 215 216 217 218 217 218 226 232 231 227 226 249 289 307 303 290 273 261 262 267 272 273 269 268 273 275 275 276 277 279 282 283 281 276 275 276 275 274 274 273 271 271 275 278 279 280 278 276 276 274 273 274 275 274 272 271 269 268 267 267 268 272 272 265 257 251 250 256 262 267 269 270 274 278 280 280 276 272 270 269 270 270 270 270
216 217 216 214 212 207 208 221 238 229 221 242 254 263 274 274 267 263 265 271 276 276 275 275 277 280 279 280 282 284 288 290 289 284 281 280 280 277 276 275 273 270 269 271 275 279 279 276 275 275 273 269 270 271 271 270 269 267 265 264 265 267 270 270 268 264 257 249 252 259 263 264 266 270 275 278 278 275 273 272 272 272 273 272 269
225 217 210 202 194 191 195 198 201 215 237 259 261 255 256 256 257 265 274 279 278 274 273 274 277 280 282 284 287 289 292 292 289 284 282 282 282 281 277 273 270 269 269 271 275 278 278 275 274 273 270 267 266 267 269 268 267 266 264 264 264 265 265 265 266 264 259 253 253 256 259 259 261 265 271 275 275 274 275 277 278 276 273 272 270
244 216 205 201 195 192 199 207 212 226 253 273 273 265 260 259 264 274 279 281 280 279 279 281 283 288 290 292 293 294 293 289 286 284 284 284 283 279 275 273 273 274 275 276 277 277 276 275 273 272 270 267 266 266 266 265 266 266 266 265 264 260 257 258 259 259 257 255 252 251 253 255 257 261 268 272 272 271 272 274 276 277 275 273 273
19 20 319 262 241 225 236 241 238 245 267 278 278 276 273 272 278 284 287 287 286 286 290 293 295 295 295 295 295 293 290 287 285 283 282 281 279 277 277 278 278 278 279 280 279 277 275 273 272 271 270 268 268 268 266 266 265 265 266 265 264 261 258 255 254 253 251 250 248 247 249 252 254 258 263 265 262 264 267 264 265 272 277 277 277
48 36 19 344 327 298 276 270 263 260 265 271 275 276 278 285 291 295 297 296 294 294 297 297 296 296 296 295 294 292 289 286 284 282 280 279 278 278 279 279 278 278 278 279 278 275 272 271 271 271 269 268 269 268 268 268 265 263 265 265 261 260 258 255 252 248 245 245 244 245 246 248 251 252 252 252 252 260 267 265 261 267 274 277 278
74 45 308 278 273 266 267 269 267 266 266 271 278 282 290 300 303 302 301 299 298 301 301 301 301 301 301 300 298 297 294 292 290 288 286 284 282 280 279 279 278 277 275 274 273 271 270 269 269 270 269 268 267 267 267 267 264 263 265 265 261 258 256 253 251 247 243 242 241 240 238 242 246 244 244 250 255 260 262 259 258 264 269 271 276
215 258 266 267 262 265 276 281 286 295 297 297 300 304 308 310 309 307 307 307 309 311 311 311 311 310 308 306 304 302 298 297 295 294 291 288 285 282 280 278 277 275 272 271 269 269 269 269 269 268 268 267 266 266 266 266 265 263 264 264 261 258 255 253 252 250 245 244 246 243 236 240 248 247 246 251 255 255 255 255 255 258 258 257 268
227 266 269 264 268 284 299 305 310 314 315 318 321 321 320 318 317 316 315 315 316 315 315 314 312 311 309 306 304 302 299 296 295 294 292 290 287 284 281 278 276 274 273 271 269 269 268 268 268 266 266 267 267 267 267 266 265 264 264 263 262 261 260 258 256 254 250 248 249 246 241 244 250 250 249 250 251 251 252 252 251 251 250 248 249
150 209 244 262 291 317 324 324 329 334 336 337 334 332 330 327 324 323 322 322 320 317 315 313 311 310 307 304 302 300 298 296 295 294 293 291 289 286 283 280 277 275 275 273 271 270 268 266 265 264 266 266 266 266 265 263 264 264 265 265 263 263 263 262 261 260 257 253 250 249 248 247 249 251 253 253 251 249 248 248 249 249 247 247 249
70 18 334 339 346 352 351 350 353 351 346 343 339 336 333 329 328 328 327 325 322 318 316 313 310 308 305 303 301 299 297 296 294 292 290 290 289 287 286 284 280 278 277 276 273 270 268 265 262 263 265 265 265 265 263 261 263 264 264 264 264 263 263 263 262 263 262 259 255 254 255 253 252 255 258 257 252 247 247 249 251 251 250 253 257
29 10 8 10 7 1 357 355 352 347 342 339 335 333 332 330 330 328 326 324 320 317 315 311 309 307 304 302 299 296 295 295 294 292 290 290 290 288 287 286 283 280 279 278 276 273 270 267 265 264 264 265 266 265 263 262 263 263 263 262 262 262 262 262 262 263 264 263 260 259 259 258 257 258 261 261 258 255 254 254 257 258 259 262 263
16 15 16 12 4 358 353 348 343 340 337 335 334 333 333 331 329 327 324 321 317 315 312 309 306 303 301 299 296 293 293 295 296 295 294 294 293 291 289 287 284 281 278 279 279 276 272 269 267 264 262 263 265 266 265 265 263 262 262 262 262 261 260 261 263 264 264 264 263 262 262 261 262 263 265 266 266 265 263 260 260 260 260 262 263
33 28 21 9 357 350 345 340 337 336 336 336 336 334 331 327 326 324 320 316 313 311 308 305 303 300 298 297 294 293 293 296 298 297 298 298 297 295 292 289 284 279 277 279 280 278 274 272 269 266 263 262 265 267 267 266 264 263 263 263 263 262 261 263 264 264 264 263 262 262 262 263 264 265 267 267 268 267 262 257 257 256 254 254 257
45 26 8 353 342 337 335 334 334 335 335 335 331 325 321 317 315 313 311 308 306 307 306 304 302 301 299 297 296 294 294 296 298 298 298 300 299 298 296 293 287 281 279 280 280 278 276 274 271 268 264 264 265 265 266 266 266 265 264 264 264 263 264 265 265 264 264 262 260 260 261 263 262 262 264 264 265 265 259 254 256 254 250 250 253
20 1 346 338 334 333 335 336 336 334 330 324 318 314 310 309 309 308 307 306 306 307 307 305 303 303 301 299 297 296 294 297 300 301 302 303 299 296 297 295 289 284 282 282 281 278 275 273 271 268 265 265 265 265 266 268 268 268 266 264 263 264 265 266 265 265 264 260 258 258 259 260 260 262 265 264 263 262 260 260 260 254 246 248 250
356 347 339 335 339 345 350 346 337 331 325 321 318 315 312 311 311 310 309 309 309 309 308 305 303 302 302 301 300 299 299 301 305 307 308 305 298 295 297 298 294 290 287 283 278 275 271 268 267 267 266 266 266 266 266 267 268 270 267 261 258 261 266 268 267 266 264 262 262 262 261 263 264 265 265 262 258 257 259 263 264 256 247 246 248
1 2 1 3 5 359 349 341 333 328 324 323 321 319 318 317 315 315 314 314 313 311 310 308 303 301 304 306 306 306 307 308 310 312 313 312 308 303 299 298 297 293 288 281 274 271 270 269 269 270 269 269 269 268 266 264 265 268 267 263 263 267 271 271 269 269 267 266 268 267 265 264 263 261 259 257 255 257 259 262 265 261 253 247 246
27 23 18 11 2 352 342 336 331 328 328 328 325 324 324 324 323 322 320 318 316 313 310 308 305 305 310 314 315 314 314 315 317 317 316 317 316 309 301 297 299 298 293 285 277 272 270 270 270 271 270 269 268 267 266 266 265 266 267 268 269 271 271 270 270 269 266 265 265 265 263 261 260 258 257 255 256 257 258 260 262 262 258 253 250
21 16 11 2 353 347 341 337 336 336 338 338 336 332 331 330 328 328 325 321 317 313 313 316 318 319 322 326 328 328 327 326 327 324 319 316 313 306 300 297 299 302 301 293 284 279 276 273 271 271 269 268 267 266 265 264 263 264 265 267 269 272 274 272 270 267 265 264 262 260 259 258 256 255 255 254 255 256 257 261 264 263 261 260 258
16 11 5 357 350 347 345 345 348 349 349 345 340 336 334 332 330 328 327 325 321 319 327 341 346 341 338 337 337 337 335 333 331 328 323 318 311 305 302 300 297 297 296 290 284 280 278 276 275 274 272 270 269 267 265 263 262 263 265 267 269 271 271 268 264 261 260 259 257 256 255 254 253 253 254 254 255 258 261 266 269 267 264 262 260
11 6 1 355 352 353 354 356 357 354 349 345 340 337 335 331 329 332 338 344 348 353 2 5 357 348 343 341 338 337 335 333 330 327 323 318 312 311 310 308 303 298 294 288 283 279 277 275 274 273 271 269 267 265 265 264 265 266 268 268 267 267 264 261 257 254 252 251 251 252 253 253 252 253 255 257 258 261 264 267 267 264 263 261 258
7 4 0 357 357 359 0 359 354 349 347 346 343 340 337 337 351 15 26 25 20 18 14 7 0 354 349 345 339 335 333 331 329 326 323 319 317 317 316 312 307 301 294 288 284 283 281 280 278 276 274 272 270 269 269 269 270 271 270 268 265 263 260 256 252 249 248 248 249 249 251 254 255 256 259 260 260 260 260 260 259 258 258 255 246
5 2 359 358 358 359 358 353 348 349 351 352 356 6 22 42 53 52 43 33 28 24 21 16 9 1 352 346 339 333 331 330 328 326 326 325 325 325 322 314 307 299 292 287 286 285 283 280 279 278 277 276 274 272 271 271 272 271 270 268 265 262 259 257 253 250 250 250 250 251 254 257 258 258 258 256 255 256 255 252 251 254 254 244 223
6 2 359 357 356 357 353 348 348 351 355 7 38 60 67 69 65 59 51 46 43 37 30 24 15 5 356 347 342 338 335 333 332 333 336 338 338 337 331 318 304 297 294 290 286 282 278 274 273 272 273 272 272 271 272 272 273 273 272 270 267 263 261 258 255 252 251 252 252 254 257 258 256 255 254 251 250 250 248 246 248 248 239 217 189
5 4 360 356 356 355 350 347 350 352 358 46 82 80 75 76 75 70 63 56 51 46 40 32 23 17 10 3 356 349 343 344 350 356 359 359 358 355 350 339 322 314 314 308 294 280 272 271 271 272 273 272 272 275 277 277 278 280 279 276 271 266 261 256 252 251 252 251 249 251 253 254 253 251 247 240 232 230 232 235 234 222 198 167 137
3 3 1 358 356 351 347 349 352 350 3 84 99 89 83 84 78 70 63 57 54 53 48 41 35 29 24 22 19 12 7 8 13 16 16 18 22 23 22 22 20 11 3 358 347 319 284 273 271 270 269 271 278 290 303 313 323 337 356 12 14 357 314 273 252 250 251 248 244 246 248 246 240 223 176 128 108 113 137 144 137 132 120 106 96
4 1 359 357 353 348 346 347 348 353 33 103 107 96 92 87 72 65 65 62 61 60 55 51 47 41 36 34 32 31 31 30 29 29 30 33 37 39 41 46 47 43 40 41 41 40 42 45 48 55 57 51 43 42 46 51 52 51 52 53 51 53 56 59 65 72 76 81 88 90 89 90 90 90 92 91 88 87 89 93 98 98 93 87 83
6 3 359 354 347 344 345 346 353 19 88 115 114 105 102 89 69 66 70 70 69 67 61 57 54 50 46 44 40 39 40 40 40 40 41 44 45 45 48 52 55 54 55 55 51 47 48 52 55 57 57 56 55 54 55 55 54 53 53 52 49 50 54 60 66 71 72 73 75 77 78 80 80 80 81 83 83 81 80 81 85 87 88 86 81
13 7 357 350 350 359 14 29 44 71 100 114 112 103 97 86 75 74 76 76 76 73 66 61 57 53 51 48 45 44 44 45 46 46 46 48 49 49 51 54 56 56 56 55 51 48 49 51 51 52 53 53 54 56 56 56 56 56 55 54 53 54 57 64 69 71 71 73 75 76 77 80 81 81 80 80 81 81 78 77 79 81 81 79 76
21 14 2 2 25 54 71 78 81 86 93 97 95 91 87 87 89 88 83 78 72 64 59 58 55 52 50 48 45 45 45 47 48 47 48 50 50 50 53 55 54 54 54 53 51 48 47 47 48 49 50 52 54 55 56 57 58 58 57 57 57 57 60 64 68 68 69 72 74 74 75 77 79 80 79 79 78 78 76 75 75 74 72 71 69
33 32 34 53 74 83 87 90 93 94 93 92 92 93 94 97 99 94 83 66 45 35 38 41 41 42 43 42 41 41 42 44 46 48 49 49 49 51 53 51 48 47 48 49 51 50 47 46 46 47 48 51 53 54 57 58 58 60 60 59 58 58 59 61 63 65 68 71 72 73 76 76 76 77 76 75 74 74 74 75 76 75 73 72 70
45 46 58 79 89 91 93 98 100 99 96 96 99 101 102 102 96 85 71 55 44 39 37 36 39 43 45 43 41 40 39 41 44 46 48 49 50 52 52 47 44 45 45 46 49 51 48 46 45 46 47 50 52 53 56 58 59 62 64 64 63 62 61 61 62 63 65 68 69 72 74 76 78 80 78 75 72 73 73 74 75 76 77 76 74
57 60 76 92 100 99 97 98 101 102 102 105 106 104 98 90 80 73 66 60 56 50 42 39 42 46 48 48 47 45 44 44 45 47 49 50 51 52 51 49 48 48 47 46 48 50 48 46 47 47 48 50 52 53 55 57 60 62 65 67 67 67 67 68 69 69 68 66 65 65 67 68 73 80 82 80 77 74 74 75 75 75 77 78 77
70 79 93 103 107 105 101 97 98 103 106 106 103 96 89 84 80 78 75 68 57 45 39 40 41 41 43 47 50 50 50 49 47 46 47 48 49 50 51 51 52 51 49 49 50 51 49 48 49 50 50 52 53 54 54 56 58 60 63 66 66 67 69 70 72 73 72 70 68 66 65 66 68 73 79 81 81 80 79 79 79 79 79 80 80
83 93 104 108 105 102 100 98 99 102 104 102 96 90 87 85 84 84 77 60 46 40 43 46 46 46 48 51 52 52 51 48 45 44 44 45 47 49 50 52 52 52 52 52 52 52 51 50 51 52 53 54 56 57 58 59 60 61 63 64 64 65 67 69 71 72 73 74 74 75 74 74 75 76 78 80 83 84 85 84 85 86 86 84 85
93 100 108 109 106 104 104 103 103 103 102 99 95 91 91 90 88 81 63 45 42 48 54 56 56 57 59 58 56 56 54 51 49 48 46 45 46 48 50 51 51 52 53 54 54 55 54 53 54 54 54 55 58 60 62 62 63 63 63 63 63 63 66 69 73 74 76 77 79 81 82 83 84 86 88 89 91 92 92 90 91 92 91 88 86
102 103 106 107 106 106 106 106 106 106 105 103 101 99 97 94 85 69 54 50 55 61 64 64 64 66 67 65 63 62 61 58 56 55 52 51 50 50 52 53 54 55 56 56 57 59 58 58 58 57 57 57 59 62 64 65 64 64 64 63 64 64 65 67 71 74 76 79 80 83 86 89 90 92 94 97 99 98 96 95 94 94 93 91 86
108 108 108 108 109 110 109 110 111 111 109 108 106 103 96 85 76 70 67 69 72 74 72 70 70 71 71 69 68 68 66 63 62 60 58 57 56 55 56 57 58 60 61 61 62 63 63 63 61 60 60 59 59 61 63 64 64 65 65 64 65 64 64 65 69 72 75 77 78 81 84 87 90 93 95 97 97 96 94 93 91 89 88 83 75
108 112 112 112 113 115 116 117 117 114 112 109 104 92 81 75 75 76 78 79 80 80 78 76 75 74 73 71 71 71 69 67 65 63 62 61 60 60 60 61 63 65 67 68 68 69 69 67 65 64 62 62 61 61 61 61 63 66 67 66 66 65 64 64 67 70 73 75 75 77 80 82 85 89 90 91 92 91 90 87 82 78 75 71 65
108 111 113 114 117 118 119 119 117 113 110 105 94 82 77 76 77 78 79 81 81 81 81 79 77 76 74 72 72 71 71 71 70 67 65 64 64 64 64 64 65 67 68 69 70 72 72 71 69 67 66 65 64 63 63 62 63 65 66 66 67 66 64 64 65 67 72 77 78 79 82 83 83 84 85 85 85 84 83 81 78 74 71 68 66
112 114 116 119 122 122 121 119 115 111 104 92 81 75 73 74 76 78 81 83 83 82 82 81 80 79 77 75 74 73 72 73 73 71 68 68 67 66 65 65 65 65 65 66 67 69 70 70 70 68 67 66 64 64 64 63 63 64 64 65 65 65 64 64 66 68 73 77 78 79 81 81 81 81 82 81 79 78 76 75 74 74 72 67 64
119 120 122 125 127 127 125 120 112 102 88 68 56 52 53 58 69 84 93 94 90 87 86 85 84 83 82 79 78 77 76 76 75 74 72 71 69 67 65 64 63 63 64 64 65 66 67 68 68 68 67 66 65 65 64 64 64 65 65 65 65 64 63 64 66 69 72 74 76 78 80 79 78 79 80 80 79 76 73 69 66 67 67 64 60
124 126 127 129 130 130 126 116 96 68 42 27 25 31 46 70 93 104 108 107 102 96 92 90 89 87 86 83 82 81 80 79 78 76 74 72 70 68 66 64 62 62 62 63 64 66 66 67 68 69 68 68 67 66 66 65 65 66 66 66 64 62 62 63 66 70 72 73 75 79 80 78 76 74 73 74 74 72 69 66 63 62 61 59 57
127 128 129 131 132 127 112 83 56 48 54 63 72 80 90 104 115 114 109 108 107 104 101 97 93 88 85 83 83 83 83 82 80 77 72 69 67 66 65 64 62 61 61 61 60 60 61 62 63 64 65 66 66 65 64 63 63 63 63 63 61 58 57 60 65 70 72 72 73 75 76 75 72 68 65 64 63 62 62 62 57 56 60 61 59
130 130 128 125 113 88 69 67 73 80 85 88 93 99 104 110 114 113 110 109 109 108 105 103 98 92 87 83 81 82 84 85 82 76 69 66 67 67 68 68 67 64 63 61 59 57 56 56 56 57 58 59 61 62 62 62 61 60 59 61 61 60 59 59 62 66 70 73 75 75 74 72 68 65 63 64 66 68 72 70 63 64 69 68 64
139 134 121 100 76 66 71 81 90 96 99 99 100 103 106 109 111 111 113 114 113 109 108 108 107 102 95 89 84 82 84 87 87 80 72 69 70 70 71 71 71 68 65 63 60 57 55 54 54 54 55 54 56 58 61 61 59 57 56 58 62 62 59 57 57 57 59 64 70 73 73 71 67 64 64 68 72 74 76 75 72 71 70 66 64
152 138 112 84 76 83 96 104 107 108 107 106 105 106 107 108 108 109 110 110 109 107 106 106 106 105 100 94 89 86 86 90 95 94 83 74 71 71 72 72 72 69 67 64 60 57 54 52 50 50 50 51 52 53 56 58 58 56 53 55 59 59 56 53 51 50 49 50 56 62 63 62 60 60 61 65 68 70 72 73 70 67 64 61 62